Estación de Combarbala
Ultimos registro cada 15 minutos 92
| N° | Estación | Fecha / Hora | Temperatura | Humedad | Lluvia | Velocidad | Dirección | Radiación | Presion |
| 92 | Combarbala | 03-09-2026 22:45 | 14,4 | 63 | 0 | 0 | 233 | 0,6 | 914 |
| 91 | Combarbala | 03-09-2026 22:30 | 13,6 | 66,5 | 0 | 0 | 233 | 0,6 | 914 |
| 90 | Combarbala | 03-09-2026 22:15 | 13,6 | 66,7 | 0 | 0 | 233 | 0,6 | 913,9 |
| 89 | Combarbala | 03-09-2026 22:00 | 13,9 | 65,6 | 0 | 0 | 233 | 0,6 | 914 |
| 88 | Combarbala | 03-09-2026 21:45 | 14,1 | 63,9 | 0 | 0 | 233 | 0,6 | 914 |
| 87 | Combarbala | 03-09-2026 21:30 | 14,2 | 63,2 | 0 | 0 | 233 | 0,6 | 914,1 |
| 86 | Combarbala | 03-09-2026 21:15 | 14,1 | 61,1 | 0 | 0 | 233 | 0,6 | 914 |
| 85 | Combarbala | 03-09-2026 21:00 | 14,6 | 58,7 | 0 | 0 | 233 | 0,6 | 914,1 |
| 84 | Combarbala | 03-09-2026 20:45 | 14,2 | 61,5 | 0 | 0 | 233 | 0,6 | 914 |
| 83 | Combarbala | 03-09-2026 20:30 | 14,2 | 59,4 | 0 | 0 | 233 | 0,6 | 914 |
| 82 | Combarbala | 03-09-2026 20:15 | 14,5 | 57,2 | 0 | 0 | 233 | 0,6 | 913,9 |
| 81 | Combarbala | 03-09-2026 20:00 | 15,2 | 53,4 | 0 | 0 | 233 | 0,6 | 913,7 |
| 80 | Combarbala | 03-09-2026 19:45 | 15,7 | 51,1 | 0 | 0 | 233 | 0,6 | 913,5 |
| 79 | Combarbala | 03-09-2026 19:30 | 15,6 | 51,5 | 0 | 0 | 233 | 0,6 | 913,4 |
| 78 | Combarbala | 03-09-2026 19:15 | 16,7 | 47,4 | 0 | 1 | 218 | 0,6 | 913,3 |
| 77 | Combarbala | 03-09-2026 19:00 | 17,3 | 45,3 | 0 | 1 | 219 | 0,6 | 913,1 |
| 76 | Combarbala | 03-09-2026 18:45 | 17,4 | 46,1 | 0 | 1,5 | 212 | 0,6 | 913 |
| 75 | Combarbala | 03-09-2026 18:30 | 17,9 | 45,2 | 0 | 1 | 220 | 8,1 | 912,8 |
| 74 | Combarbala | 03-09-2026 18:15 | 18,9 | 42,5 | 0 | 2 | 215 | 29,4 | 912,7 |
| 73 | Combarbala | 03-09-2026 18:00 | 19,9 | 41 | 0 | 2 | 220 | 96,9 | 912,8 |
| 72 | Combarbala | 03-09-2026 17:45 | 20,4 | 41,5 | 0 | 1,5 | 225 | 150,6 | 912,3 |
| 71 | Combarbala | 03-09-2026 17:30 | 20,7 | 39,1 | 0 | 1 | 222 | 98,1 | 912,4 |
| 70 | Combarbala | 03-09-2026 17:15 | 21,7 | 36,3 | 0 | 1,5 | 244 | 130,6 | 912,4 |
| 69 | Combarbala | 03-09-2026 17:00 | 23,2 | 31,5 | 0 | 1,5 | 260 | 288,1 | 912,1 |
| 68 | Combarbala | 03-09-2026 16:45 | 22,9 | 32,3 | 0 | 1,5 | 247 | 169,4 | 912,3 |
| 67 | Combarbala | 03-09-2026 16:30 | 23,7 | 31,6 | 0 | 1,5 | 265 | 508,1 | 912 |
| 66 | Combarbala | 03-09-2026 16:15 | 23,3 | 31,3 | 0 | 0,5 | 243 | 273,1 | 912,1 |
| 65 | Combarbala | 03-09-2026 16:00 | 24,8 | 27,3 | 0 | 1 | 274 | 259,4 | 912 |
| 64 | Combarbala | 03-09-2026 15:45 | 24,5 | 22,6 | 0 | 1,5 | 271 | 583,1 | 912,2 |
| 63 | Combarbala | 03-09-2026 15:30 | 24,7 | 23,5 | 0 | 1 | 277 | 653,1 | 912,1 |
| 62 | Combarbala | 03-09-2026 15:15 | 25 | 23,3 | 0 | 0,5 | 274 | 480,6 | 912 |
| 61 | Combarbala | 03-09-2026 15:00 | 24,6 | 20,8 | 0 | 0,5 | 307 | 279,4 | 912,2 |
| 60 | Combarbala | 03-09-2026 14:45 | 26,2 | 19,4 | 0 | 0,5 | 319 | 571,9 | 912,4 |
| 59 | Combarbala | 03-09-2026 14:30 | 24,6 | 21,9 | 0 | 0,5 | 323 | 810,6 | 912,3 |
| 58 | Combarbala | 03-09-2026 14:15 | 25,3 | 22,8 | 0 | 1 | 357 | 518,1 | 912,4 |
| 57 | Combarbala | 03-09-2026 14:00 | 26,5 | 22,5 | 0 | 0,5 | 334 | 686,9 | 912,8 |
| 56 | Combarbala | 03-09-2026 13:45 | 25,8 | 20,3 | 0 | 1 | 352 | 731,9 | 912,8 |
| 55 | Combarbala | 03-09-2026 13:30 | 25,3 | 19,2 | 0 | 0,5 | 321 | 803,1 | 912,9 |
| 54 | Combarbala | 03-09-2026 13:15 | 25,7 | 21,2 | 0 | 0,5 | 321 | 778,1 | 913,1 |
| 53 | Combarbala | 03-09-2026 13:00 | 25,5 | 22,2 | 0 | 0,5 | 331 | 786,9 | 913,2 |
| 52 | Combarbala | 03-09-2026 12:45 | 24,4 | 21,5 | 0 | 1 | 347 | 798,1 | 913,4 |
| 51 | Combarbala | 03-09-2026 12:30 | 25,4 | 29,7 | 0 | 0,5 | 279 | 846,9 | 913,4 |
| 50 | Combarbala | 03-09-2026 12:15 | 24,2 | 25,7 | 0 | 0,5 | 354 | 768,1 | 913,6 |
| 49 | Combarbala | 03-09-2026 12:00 | 24,2 | 27,6 | 0 | 0 | 314 | 741,9 | 913,6 |
| 48 | Combarbala | 03-09-2026 11:45 | 23,1 | 25,2 | 0 | 0,5 | 314 | 725,6 | 913,6 |
| 47 | Combarbala | 03-09-2026 11:30 | 23,1 | 25,6 | 0 | 0,5 | 316 | 730,6 | 913,8 |
| 46 | Combarbala | 03-09-2026 11:15 | 23,4 | 26,9 | 0 | 0,5 | 352 | 683,1 | 913,9 |
| 45 | Combarbala | 03-09-2026 11:00 | 22,3 | 27,3 | 0 | 0 | 344 | 659,4 | 913,9 |
| 44 | Combarbala | 03-09-2026 10:45 | 22,7 | 29,6 | 0 | 0 | 358 | 639,4 | 913,9 |
| 43 | Combarbala | 03-09-2026 10:30 | 21,4 | 32,3 | 0 | 0 | 358 | 605,6 | 914 |
| 42 | Combarbala | 03-09-2026 10:15 | 20,9 | 32,4 | 0 | 0 | 358 | 566,9 | 914,1 |
| 41 | Combarbala | 03-09-2026 10:00 | 19,5 | 35 | 0 | 0 | 358 | 530,6 | 913,8 |
| 40 | Combarbala | 03-09-2026 09:45 | 19,5 | 35 | 0 | 0 | 358 | 493,1 | 914 |
| 39 | Combarbala | 03-09-2026 09:30 | 18,7 | 38,8 | 0 | 0 | 358 | 449,4 | 914,2 |
| 38 | Combarbala | 03-09-2026 09:15 | 15,7 | 48 | 0 | 0 | 358 | 444,4 | 914,1 |
| 37 | Combarbala | 03-09-2026 09:00 | 16,4 | 40,4 | 0 | 0 | 358 | 274,4 | 914,1 |
| 36 | Combarbala | 03-09-2026 08:45 | 12,9 | 47,2 | 0 | 0 | 358 | 90,6 | 914 |
| 35 | Combarbala | 03-09-2026 08:30 | 12,1 | 51,6 | 0 | 0 | 358 | 64,4 | 914,1 |
| 34 | Combarbala | 03-09-2026 08:15 | 12,7 | 47,5 | 0 | 0 | 358 | 51,9 | 914 |
| 33 | Combarbala | 03-09-2026 08:00 | 13,4 | 49,3 | 0 | 0 | 358 | 44,4 | 913,9 |
| 32 | Combarbala | 03-09-2026 07:45 | 12,3 | 50,7 | 0 | 0 | 358 | 121,9 | 913,8 |
| 31 | Combarbala | 03-09-2026 07:30 | 10,5 | 52,7 | 0 | 0 | 358 | 11,9 | 913,7 |
| 30 | Combarbala | 03-09-2026 07:15 | 10,9 | 48,2 | 0 | 0 | 358 | 5,6 | 913,3 |
| 29 | Combarbala | 03-09-2026 07:00 | 10,7 | 50,2 | 0 | 0 | 358 | 1,9 | 913,3 |
| 28 | Combarbala | 03-09-2026 06:45 | 11 | 48,7 | 0 | 0 | 358 | 0,6 | 913,3 |
| 27 | Combarbala | 03-09-2026 06:30 | 11,1 | 49,4 | 0 | 0 | 358 | 0,6 | 913,3 |
| 26 | Combarbala | 03-09-2026 06:15 | 11 | 51,2 | 0 | 0 | 358 | 0,6 | 913,1 |
| 25 | Combarbala | 03-09-2026 06:00 | 10,8 | 55 | 0 | 0 | 358 | 0,6 | 913,1 |
| 24 | Combarbala | 03-09-2026 05:45 | 11,1 | 51,8 | 0 | 0 | 358 | 0,6 | 913,2 |
| 23 | Combarbala | 03-09-2026 05:30 | 11 | 52,8 | 0 | 0 | 358 | 0,6 | 913 |
| 22 | Combarbala | 03-09-2026 05:15 | 10,5 | 54,4 | 0 | 0 | 358 | 0,6 | 913,1 |
| 21 | Combarbala | 03-09-2026 05:00 | 11,5 | 51,7 | 0 | 0 | 358 | 0,6 | 912,9 |
| 20 | Combarbala | 03-09-2026 04:45 | 11,1 | 54,4 | 0 | 0 | 358 | 0,6 | 913,2 |
| 19 | Combarbala | 03-09-2026 04:30 | 11,1 | 55,6 | 0 | 0 | 358 | 0,6 | 913,3 |
| 18 | Combarbala | 03-09-2026 04:15 | 11,2 | 57,2 | 0 | 0 | 358 | 0,6 | 913,4 |
| 17 | Combarbala | 03-09-2026 04:00 | 10,7 | 58,3 | 0 | 0 | 358 | 0,6 | 913,2 |
| 16 | Combarbala | 03-09-2026 03:45 | 11,2 | 57,2 | 0 | 0 | 358 | 0,6 | 913,2 |
| 15 | Combarbala | 03-09-2026 03:30 | 12 | 53 | 0 | 0 | 358 | 0,6 | 913,3 |
| 14 | Combarbala | 03-09-2026 03:15 | 11,9 | 53,9 | 0 | 0 | 358 | 0,6 | 913,2 |
| 13 | Combarbala | 03-09-2026 03:00 | 11,5 | 55,1 | 0 | 0 | 358 | 0,6 | 913,4 |
| 12 | Combarbala | 03-09-2026 02:45 | 11,4 | 56,5 | 0 | 0 | 358 | 0,6 | 913,4 |
| 11 | Combarbala | 03-09-2026 02:30 | 11,3 | 57,1 | 0 | 0 | 358 | 0,6 | 913,5 |
| 10 | Combarbala | 03-09-2026 02:15 | 11,2 | 57,8 | 0 | 0 | 358 | 0,6 | 913,4 |
| 9 | Combarbala | 03-09-2026 02:00 | 11,4 | 58 | 0 | 0 | 358 | 0,6 | 913,6 |
| 8 | Combarbala | 03-09-2026 01:45 | 11,8 | 55,8 | 0 | 0 | 358 | 0,6 | 913,5 |
| 7 | Combarbala | 03-09-2026 01:30 | 12 | 56,4 | 0 | 0 | 358 | 0,6 | 913,7 |
| 6 | Combarbala | 03-09-2026 01:15 | 12 | 55,7 | 0 | 0 | 358 | 0,6 | 913,7 |
| 5 | Combarbala | 03-09-2026 01:00 | 11,7 | 59,1 | 0 | 0 | 358 | 0,6 | 913,8 |
| 4 | Combarbala | 03-09-2026 00:45 | 12,1 | 57,7 | 0 | 0 | 358 | 0,6 | 913,9 |
| 3 | Combarbala | 03-09-2026 00:30 | 12,1 | 59,6 | 0 | 0 | 358 | 0,6 | 913,9 |
| 2 | Combarbala | 03-09-2026 00:15 | 12 | 59,1 | 0 | 0 | 358 | 0,6 | 913,8 |
| 1 | Combarbala | 03-09-2026 00:00 | 12,2 | 58,6 | 0 | 0 | 358 | 0,6 | 913,8 |